Location: Leverkusen
(51.0459°N, 7.0192°E)
Time: 19:06:32
(UTC+01:00)

ISS - Visible Passes

Search period start: 26 March 2019 00:00
Search period end: 05 April 2019 01:00
Orbit: 408 x 411 km, 51.6° (Epoch: 27 March)

Date Brightness Start Highest point End Pass type
(mag) Time Alt. Az. Time Alt. Az. Time Alt. Az.
26 Mar -3.3 19:26:28 10° SW 19:29:37 42° SSE 19:32:46 10° E visible
26 Mar -3.8 21:02:47 10° W 21:06:00 80° NW 21:06:00 80° NW visible
27 Mar -3.9 20:12:07 10° WSW 20:15:26 86° SSE 20:17:30 21° E visible
27 Mar -1.6 21:48:46 10° W 21:50:16 24° W 21:50:16 24° W visible
28 Mar -3.9 20:58:04 10° W 21:01:24 78° N 21:01:41 70° ENE visible
29 Mar -3.8 20:07:22 10° W 20:10:41 79° N 20:13:03 18° E visible
29 Mar -2.0 21:44:01 10° W 21:45:49 29° W 21:45:49 29° W visible
30 Mar -3.9 20:53:19 10° W 20:56:38 90° SSW 20:57:08 62° ESE visible
31 Mar -3.8 21:02:36 10° W 21:05:55 81° N 21:08:27 16° E visible
31 Mar -2.1 22:39:14 10° W 22:41:12 30° W 22:41:12 30° W visible
01 Apr -3.7 21:48:29 10° W 21:51:47 64° SSW 21:52:30 47° SE visible
02 Apr -3.8 20:57:45 10° W 21:01:04 82° SSW 21:03:47 14° ESE visible
02 Apr -1.9 22:34:33 10° W 22:36:33 23° WSW 22:36:33 23° WSW visible
03 Apr -2.9 21:43:40 10° W 21:46:47 38° SSW 21:47:51 28° SSE visible
04 Apr -3.3 20:52:52 10° W 20:56:06 54° SSW 20:59:11 11° SE visible
04 Apr -1.3 22:30:19 10° WSW 22:31:57 14° SW 22:31:57 14° SW visible
